This is the latest recevied weather packets stored in our database for station/object KD7CTY. If no packets are shown the sender has not sent any weather packets the latest 10 day(s).
| Time | Temp. | Humidity | Pressure | Rain* | Wind** | Luminosity | Snow |
|---|---|---|---|---|---|---|---|
| 1787842437 | 15.56° C | 91% | 1015.5 hPa | 0 mm | - | 48 W/m² | - |
| 1787842131 | 15.56° C | 91% | 1015.5 hPa | 0 mm | - | 45 W/m² | - |
| 1787841826 | 15° C | 91% | 1015.4 hPa | 0 mm | - | 41 W/m² | - |
| 1787841523 | 15° C | 91% | 1015.5 hPa | 0 mm | - | 35 W/m² | - |
| 1787841221 | 15° C | 91% | 1015.4 hPa | 0 mm | - | 38 W/m² | - |
| 1787840916 | 15° C | 91% | 1015.3 hPa | 0 mm | - | 44 W/m² | - |
| 1787840611 | 15° C | 91% | 1015.4 hPa | 0 mm | - | 47 W/m² | - |
| 1787840306 | 15° C | 90% | 1015.3 hPa | 0 mm | - | 42 W/m² | - |
| 1787840001 | 15° C | 91% | 1015.3 hPa | 0 mm | - | 29 W/m² | - |
| 1787839701 | 15° C | 90% | 1015.4 hPa | 0 mm | - | 24 W/m² | - |
| 1787839396 | 15° C | 90% | 1015.4 hPa | 0 mm | - | 17 W/m² | - |
| 1787839095 | 15° C | 90% | 1015.2 hPa | 0 mm | - | 14 W/m² | - |
| 1787838794 | 15° C | 90% | 1015.2 hPa | 0 mm | - | 11 W/m² | - |
| 1787838489 | 15° C | 90% | 1015 hPa | 0 mm | - | 7 W/m² | - |
| 1787838188 | 15° C | 91% | 1014.8 hPa | 0 mm | - | 4 W/m² | - |
| 1787837888 | 15° C | 91% | 1014.9 hPa | 0 mm | - | 2 W/m² | - |
| 1787837587 | 15° C | 92% | 1015.1 hPa | 0 mm | - | 2 W/m² | - |
| 1787837281 | 15° C | 92% | 1015.1 hPa | 0 mm | - | 0 W/m² | - |
| 1787836976 | 15° C | 92% | 1015 hPa | 0 mm | - | 0 W/m² | - |
| 1787836671 | 15° C | 93% | 1015 hPa | 0 mm | - | 0 W/m² | - |
| 1787836371 | 15° C | 93% | 1014.9 hPa | 0 mm | - | 0 W/m² | - |
| 1787836066 | 15° C | 94% | 1015 hPa | 0 mm | - | 0 W/m² | - |
| 1787835762 | 15° C | 94% | 1015 hPa | 0 mm | - | 0 W/m² | - |
| 1787835456 | 15° C | 94% | 1015.1 hPa | 0 mm | - | 0 W/m² | - |
| 1787835152 | 15° C | 94% | 1014.9 hPa | 0 mm | - | 0 W/m² | - |
* Rain latest hour (hover to see other rain measurements)
** Current wind speed in m/s (hover to see current wind gust speed)